owner,sensor,date,latitude,longitude,vertical_datum,wind_speed,wind_to_direction,wind_speed_of_gust,qcFlag 
TABS,ioos:station:wmo:42047:1,2010-01-01T00:00:00Z,27.8966,-93.5973,4.0,3.545151619,137.1721636,4.32,'11111222,11111222,11111222' 
TABS,ioos:station:wmo:42047:1,2010-01-01T00:30:00Z,27.8966,-93.5973,4.0,3.53831881,148.2866988,4.15,'11111222,11111222,11111222' 
TABS,ioos:station:wmo:42047:1,2010-01-01T01:00:00Z,27.8966,-93.5973,4.0,2.071955598,182.4897576,2.74,'11111222,11111222,11111222' 
TABS,ioos:station:wmo:42047:1,2010-01-01T01:30:00Z,27.8966,-93.5973,4.0,0.833846509,275.505465,1.39,'11111222,11111222,11111222' 
TABS,ioos:station:wmo:42047:1,2010-01-01T02:00:00Z,27.8966,-93.5973,4.0,0.832586332,204.1023886,1.66,'11111222,11111222,11111222' 
TABS,ioos:station:wmo:42047:1,2010-01-01T02:30:00Z,27.8966,-93.5973,4.0,0.958540557,156.6447002,1.43,'11111222,11111222,11111222' 
TABS,ioos:station:wmo:42047:1,2010-01-01T03:00:00Z,27.8966,-93.5973,4.0,1.419929576,168.2154895,1.69,'11111222,11111222,11111222' 
TABS,ioos:station:wmo:42047:1,2010-01-01T03:30:00Z,27.8966,-93.5973,4.0,0.930859818,309.3326223,1.29,'11111222,11111222,11111222' 
TABS,ioos:station:wmo:42047:1,2010-01-01T04:00:00Z,27.8966,-93.5973,4.0,0.771038261,226.5766516,1.04,'11111222,11111222,11111222' 
TABS,ioos:station:wmo:42047:1,2010-01-01T04:30:00Z,27.8966,-93.5973,4.0,1.838477631,255.5102713,2.39,'11111222,11111222,11111222' 
TABS,ioos:station:wmo:42047:1,2010-01-01T05:00:00Z,27.8966,-93.5973,4.0,16.70547814,343.4089929,19.67,'11111222,11111222,11111222' 
TABS,ioos:station:wmo:42047:1,2010-01-01T05:30:00Z,27.8966,-93.5973,4.0,15.39039311,342.6480263,17.67,'11111222,11111222,11111222' 
TABS,ioos:station:wmo:42047:1,2010-01-01T06:00:00Z,27.8966,-93.5973,4.0,14.2692011,343.7621087,16.11,'11111222,11111222,11111222' 
TABS,ioos:station:wmo:42047:1,2010-01-01T06:30:00Z,27.8966,-93.5973,4.0,13.41778298,346.5539144,16.25,'11111222,11111222,11111222' 
TABS,ioos:station:wmo:42047:1,2010-01-01T07:00:00Z,27.8966,-93.5973,4.0,12.48112575,347.6004701,14.79,'11111222,11111222,11111222' 
TABS,ioos:station:wmo:42047:1,2010-01-01T07:30:00Z,27.8966,-93.5973,4.0,11.36892695,352.0621402,12.83,'11111222,11111222,11111222' 
TABS,ioos:station:wmo:42047:1,2010-01-01T08:00:00Z,27.8966,-93.5973,4.0,11.29092113,348.1425212,12.49,'11111222,11111222,11111222' 
TABS,ioos:station:wmo:42047:1,2010-01-01T08:30:00Z,27.8966,-93.5973,4.0,12.39897173,344.7082305,14.95,'11111222,11111222,11111222' 
TABS,ioos:station:wmo:42047:1,2010-01-01T09:00:00Z,27.8966,-93.5973,4.0,13.30445038,342.9540922,14.86,'11111222,11111222,11111222' 
TABS,ioos:station:wmo:42047:1,2010-01-01T09:30:00Z,27.8966,-93.5973,4.0,13.34902618,340.8455022,15.06,'11111222,11111222,11111222' 
TABS,ioos:station:wmo:42047:1,2010-01-01T10:00:00Z,27.8966,-93.5973,4.0,13.26773907,344.2561127,15.71,'11111222,11111222,11111222' 
TABS,ioos:station:wmo:42047:1,2010-01-01T10:30:00Z,27.8966,-93.5973,4.0,13.39280404,343.784115,16.16,'11111222,11111222,11111222' 
TABS,ioos:station:wmo:42047:1,2010-01-01T11:00:00Z,27.8966,-93.5973,4.0,13.1884874,347.7867254,14.7,'11111222,11111222,11111222' 
TABS,ioos:station:wmo:42047:1,2010-01-01T11:30:00Z,27.8966,-93.5973,4.0,12.70027559,352.4439195,14.99,'11111222,11111222,11111222' 
TABS,ioos:station:wmo:42047:1,2010-01-01T12:00:00Z,27.8966,-93.5973,4.0,12.73047525,359.5047099,15.62,'11111222,11144222,11111222' 
TABS,ioos:station:wmo:42047:1,2010-01-01T12:30:00Z,27.8966,-93.5973,4.0,12.24010212,4.639025101,14.29,'11111222,11111222,11111222' 
TABS,ioos:station:wmo:42047:1,2010-01-01T13:00:00Z,27.8966,-93.5973,4.0,11.92718743,9.312039343,13.49,'11111222,11111222,11111222' 
TABS,ioos:station:wmo:42047:1,2010-01-01T13:30:00Z,27.8966,-93.5973,4.0,11.98018781,9.949566541,14.01,'11111222,11111222,11111222' 
TABS,ioos:station:wmo:42047:1,2010-01-01T14:00:00Z,27.8966,-93.5973,4.0,10.86692689,21.65428667,13.05,'11111222,11111222,11111222' 
TABS,ioos:station:wmo:42047:1,2010-01-01T14:30:00Z,27.8966,-93.5973,4.0,10.8024164,7.49978121,13.56,'11111222,11111222,11111222' 
TABS,ioos:station:wmo:42047:1,2010-01-01T15:00:00Z,27.8966,-93.5973,4.0,11.86293808,12.75906944,14.05,'11111222,11111222,11111222' 
TABS,ioos:station:wmo:42047:1,2010-01-01T15:30:00Z,27.8966,-93.5973,4.0,11.78772667,30.37161478,13.99,'11111222,11111222,11111222' 
TABS,ioos:station:wmo:42047:1,2010-01-01T16:00:00Z,27.8966,-93.5973,4.0,10.78927708,17.14152154,13.38,'11111222,11111222,11111222' 
TABS,ioos:station:wmo:42047:1,2010-01-01T16:30:00Z,27.8966,-93.5973,4.0,10.84408133,14.47170012,13.22,'11111222,11111222,11111222' 
TABS,ioos:station:wmo:42047:1,2010-01-01T17:00:00Z,27.8966,-93.5973,4.0,10.52722661,13.17794983,12.8,'11111222,11111222,11111222' 
TABS,ioos:station:wmo:42047:1,2010-01-01T17:30:00Z,27.8966,-93.5973,4.0,9.819495914,17.78887797,11.68,'11111222,11111222,11111222' 
TABS,ioos:station:wmo:42047:1,2010-01-01T18:00:00Z,27.8966,-93.5973,4.0,9.698190553,12.98994781,12.09,'11111222,11111222,11111222' 
TABS,ioos:station:wmo:42047:1,2010-01-01T18:30:00Z,27.8966,-93.5973,4.0,8.42857046,2.583825355,10.64,'11111222,11111222,11111222' 
TABS,ioos:station:wmo:42047:1,2010-01-01T19:00:00Z,27.8966,-93.5973,4.0,8.917763172,26.07631201,10.85,'11111222,11111222,11111222' 
TABS,ioos:station:wmo:42047:1,2010-01-01T19:30:00Z,27.8966,-93.5973,4.0,8.903583548,24.06023067,10.74,'11111222,11111222,11111222' 
TABS,ioos:station:wmo:42047:1,2010-01-01T20:00:00Z,27.8966,-93.5973,4.0,8.7311454,18.70446631,10.38,'11111222,11111222,11111222' 
TABS,ioos:station:wmo:42047:1,2010-01-01T20:30:00Z,27.8966,-93.5973,4.0,8.851242851,18.57798525,10.29,'11111222,11111222,11111222' 
TABS,ioos:station:wmo:42047:1,2010-01-01T21:00:00Z,27.8966,-93.5973,4.0,8.763087355,17.87643705,10.51,'11111222,11111222,11111222' 
TABS,ioos:station:wmo:42047:1,2010-01-01T21:30:00Z,27.8966,-93.5973,4.0,8.867519383,21.15322491,10.88,'11111222,11111222,11111222' 
TABS,ioos:station:wmo:42047:1,2010-01-01T22:00:00Z,27.8966,-93.5973,4.0,8.659405291,30.38474945,10.36,'11111222,11111222,11111222' 
TABS,ioos:station:wmo:42047:1,2010-01-01T22:30:00Z,27.8966,-93.5973,4.0,8.71661058,22.03306354,10.55,'11111222,11111222,11111222' 
TABS,ioos:station:wmo:42047:1,2010-01-01T23:00:00Z,27.8966,-93.5973,4.0,9.054529253,31.86424025,11.12,'11111222,11111222,11111222' 
TABS,ioos:station:wmo:42047:1,2010-01-01T23:30:00Z,27.8966,-93.5973,4.0,9.345298283,28.01811412,12.32,'11111222,11111222,11111222' 
TABS,ioos:station:wmo:42047:1,2010-01-02T00:00:00Z,27.8966,-93.5973,4.0,8.973923334,34.78773661,11.07,'11111222,11111222,11111222' 
TABS,ioos:station:wmo:42047:1,2010-01-02T00:30:00Z,27.8966,-93.5973,4.0,7.938167295,34.27032226,9.43,'11111222,11111222,11111222' 
TABS,ioos:station:wmo:42047:1,2010-01-02T01:00:00Z,27.8966,-93.5973,4.0,7.518623544,32.23127438,9.09,'11111222,11111222,11111222' 
TABS,ioos:station:wmo:42047:1,2010-01-02T01:30:00Z,27.8966,-93.5973,4.0,7.495305197,26.63315046,9.65,'11111222,11111222,11111222' 
TABS,ioos:station:wmo:42047:1,2010-01-02T02:00:00Z,27.8966,-93.5973,4.0,7.453442158,31.2798753,9.76,'11111222,11111222,11111222' 
TABS,ioos:station:wmo:42047:1,2010-01-02T02:30:00Z,27.8966,-93.5973,4.0,7.477459462,33.98730493,9.03,'11111222,11111222,11111222' 
TABS,ioos:station:wmo:42047:1,2010-01-02T03:00:00Z,27.8966,-93.5973,4.0,7.788741875,32.89405659,9.69,'11111222,11111222,11111222' 
TABS,ioos:station:wmo:42047:1,2010-01-02T03:30:00Z,27.8966,-93.5973,4.0,7.781889231,35.05807719,9.18,'11111222,11111222,11111222' 
TABS,ioos:station:wmo:42047:1,2010-01-02T04:00:00Z,27.8966,-93.5973,4.0,8.262378592,39.45011546,9.64,'11111222,11111222,11111222' 
TABS,ioos:station:wmo:42047:1,2010-01-02T04:30:00Z,27.8966,-93.5973,4.0,8.176649681,27.69299339,11.03,'11111222,11111222,11111222' 
TABS,ioos:station:wmo:42047:1,2010-01-02T05:00:00Z,27.8966,-93.5973,4.0,7.886418706,31.83567579,9.8,'11111222,11111222,11111222' 
TABS,ioos:station:wmo:42047:1,2010-01-02T05:30:00Z,27.8966,-93.5973,4.0,6.828469814,34.01558267,8.72,'11111222,11111222,11111222' 
TABS,ioos:station:wmo:42047:1,2010-01-02T06:00:00Z,27.8966,-93.5973,4.0,6.885847805,30.54963934,8.8,'11111222,11111222,11111222' 
TABS,ioos:station:wmo:42047:1,2010-01-02T06:30:00Z,27.8966,-93.5973,4.0,7.465668088,35.07346202,9.23,'11111222,11111222,11111222' 
TABS,ioos:station:wmo:42047:1,2010-01-02T07:00:00Z,27.8966,-93.5973,4.0,7.2347633,28.30047913,9.01,'11111222,11111222,11111222' 
TABS,ioos:station:wmo:42047:1,2010-01-02T07:30:00Z,27.8966,-93.5973,4.0,7.037762428,29.91626555,8.59,'11111222,11111222,11111222' 
TABS,ioos:station:wmo:42047:1,2010-01-02T08:00:00Z,27.8966,-93.5973,4.0,6.976603758,31.16065554,9.08,'11111222,11111222,11111222' 
TABS,ioos:station:wmo:42047:1,2010-01-02T08:30:00Z,27.8966,-93.5973,4.0,6.325290507,35.02141093,8.68,'11111222,11111222,11111222' 
TABS,ioos:station:wmo:42047:1,2010-01-02T09:00:00Z,27.8966,-93.5973,4.0,6.981095903,41.108411,8.59,'11111222,11111222,11111222' 
TABS,ioos:station:wmo:42047:1,2010-01-02T09:30:00Z,27.8966,-93.5973,4.0,6.118145144,54.64705424,7.91,'11111222,11111222,11111222' 
TABS,ioos:station:wmo:42047:1,2010-01-02T10:00:00Z,27.8966,-93.5973,4.0,5.12665583,35.95312765,6.86,'11111222,11111222,11111222' 
TABS,ioos:station:wmo:42047:1,2010-01-02T10:30:00Z,27.8966,-93.5973,4.0,5.365156102,55.09512827,7.63,'11111222,11111222,11111222' 
TABS,ioos:station:wmo:42047:1,2010-01-02T11:00:00Z,27.8966,-93.5973,4.0,4.962307931,47.69492175,7.47,'11111222,11111222,11111222' 
TABS,ioos:station:wmo:42047:1,2010-01-02T11:30:00Z,27.8966,-93.5973,4.0,5.408447097,56.69155565,7.3,'11111222,11111222,11111222' 
TABS,ioos:station:wmo:42047:1,2010-01-02T12:00:00Z,27.8966,-93.5973,4.0,4.203867267,79.99951791,5.91,'11111222,11111222,11111222' 
TABS,ioos:station:wmo:42047:1,2010-01-02T12:30:00Z,27.8966,-93.5973,4.0,4.923951665,63.85089983,6.61,'11111222,11111222,11111222' 
TABS,ioos:station:wmo:42047:1,2010-01-02T13:00:00Z,27.8966,-93.5973,4.0,5.231376492,47.71125429,7.04,'11111222,11111222,11111222' 
TABS,ioos:station:wmo:42047:1,2010-01-02T13:30:00Z,27.8966,-93.5973,4.0,6.234845628,56.18215361,8.15,'11111222,11111222,11111222' 
TABS,ioos:station:wmo:42047:1,2010-01-02T14:00:00Z,27.8966,-93.5973,4.0,5.458690319,57.03739222,7.55,'11111222,11111222,11111222' 
TABS,ioos:station:wmo:42047:1,2010-01-02T14:30:00Z,27.8966,-93.5973,4.0,4.706293658,74.72314099,6.22,'11111222,11111222,11111222' 
TABS,ioos:station:wmo:42047:1,2010-01-02T15:00:00Z,27.8966,-93.5973,4.0,5.64415627,51.54595979,7.5,'11111222,11111222,11111222' 
TABS,ioos:station:wmo:42047:1,2010-01-02T15:30:00Z,27.8966,-93.5973,4.0,6.13153325,62.93310922,7.6,'11111222,11111222,11111222' 
TABS,ioos:station:wmo:42047:1,2010-01-02T16:00:00Z,27.8966,-93.5973,4.0,5.457700981,82.41882819,8.15,'11111222,11111222,11111222' 
TABS,ioos:station:wmo:42047:1,2010-01-02T16:30:00Z,27.8966,-93.5973,4.0,5.64415627,82.05612585,7.59,'11111222,11111222,11111222' 
TABS,ioos:station:wmo:42047:1,2010-01-02T17:00:00Z,27.8966,-93.5973,4.0,5.215246878,76.92264774,7.64,'11111222,11111222,11111222' 
TABS,ioos:station:wmo:42047:1,2010-01-02T17:30:00Z,27.8966,-93.5973,4.0,6.116575839,81.53831073,7.34,'11111222,11111222,11111222' 
TABS,ioos:station:wmo:42047:1,2010-01-02T18:00:00Z,27.8966,-93.5973,4.0,5.641134638,96.92385364,7.53,'11111222,11111222,11111222' 
TABS,ioos:station:wmo:42047:1,2010-01-02T18:30:00Z,27.8966,-93.5973,4.0,5.043213261,87.95417538,7.4,'11111222,11111222,11111222' 
TABS,ioos:station:wmo:42047:1,2010-01-02T19:00:00Z,27.8966,-93.5973,4.0,5.58022401,89.48619098,7.56,'11111222,11111222,11111222' 
TABS,ioos:station:wmo:42047:1,2010-01-02T19:30:00Z,27.8966,-93.5973,4.0,5.014897806,81.51402816,7.03,'11111222,11111222,11111222' 
TABS,ioos:station:wmo:42047:1,2010-01-02T20:00:00Z,27.8966,-93.5973,4.0,5.519510848,84.07208875,7.54,'11111222,11111222,11111222' 
TABS,ioos:station:wmo:42047:1,2010-01-02T20:30:00Z,27.8966,-93.5973,4.0,4.943885112,69.14516981,6.73,'11111222,11111222,11111222' 
TABS,ioos:station:wmo:42047:1,2010-01-02T21:00:00Z,27.8966,-93.5973,4.0,5.70944831,83.26044473,7.6,'11111222,11111222,11111222' 
TABS,ioos:station:wmo:42047:1,2010-01-02T21:30:00Z,27.8966,-93.5973,4.0,4.926672305,83.00440314,6.44,'11111222,11111222,11111222' 
TABS,ioos:station:wmo:42047:1,2010-01-02T22:00:00Z,27.8966,-93.5973,4.0,5.040128967,84.87720639,7.7,'11111222,11111222,11111222' 
TABS,ioos:station:wmo:42047:1,2010-01-02T22:30:00Z,27.8966,-93.5973,4.0,5.622277119,84.89742576,7.52,'11111222,11111222,11111222' 
TABS,ioos:station:wmo:42047:1,2010-01-02T23:00:00Z,27.8966,-93.5973,4.0,5.889821729,86.69025055,7.93,'11111222,11111222,11111222' 
TABS,ioos:station:wmo:42047:1,2010-01-02T23:30:00Z,27.8966,-93.5973,4.0,6.129216916,73.60480172,7.64,'11111222,11111222,11111222' 
TABS,ioos:station:wmo:42047:1,2010-01-03T00:00:00Z,27.8966,-93.5973,4.0,6.434112215,87.95099705,8.83,'11111222,11111222,11111222' 
TABS,ioos:station:wmo:42047:1,2010-01-03T00:30:00Z,27.8966,-93.5973,4.0,6.063992084,92.07954778,7.29,'11111222,11111222,11111222' 
TABS,ioos:station:wmo:42047:1,2010-01-03T01:00:00Z,27.8966,-93.5973,4.0,7.178586212,84.88464923,8.82,'11111222,11111222,11111222' 
TABS,ioos:station:wmo:42047:1,2010-01-03T01:30:00Z,27.8966,-93.5973,4.0,7.512902235,83.19619595,9.31,'11111222,11111222,11111222' 
TABS,ioos:station:wmo:42047:1,2010-01-03T02:00:00Z,27.8966,-93.5973,4.0,7.532602472,83.90299749,8.88,'11111222,11111222,11111222' 
TABS,ioos:station:wmo:42047:1,2010-01-03T02:30:00Z,27.8966,-93.5973,4.0,6.937759004,84.87245458,8.42,'11111222,11111222,11111222' 
TABS,ioos:station:wmo:42047:1,2010-01-03T03:00:00Z,27.8966,-93.5973,4.0,6.122826145,101.0166939,7.9,'11111222,11111222,11111222' 
TABS,ioos:station:wmo:42047:1,2010-01-03T03:30:00Z,27.8966,-93.5973,4.0,5.789991364,102.1642638,7.85,'11111222,11111222,11111222' 
TABS,ioos:station:wmo:42047:1,2010-01-03T04:00:00Z,27.8966,-93.5973,4.0,5.782214109,103.6040384,7.33,'11111222,11111222,11111222' 
TABS,ioos:station:wmo:42047:1,2010-01-03T04:30:00Z,27.8966,-93.5973,4.0,6.455702905,93.99750167,8.11,'11111222,11111222,11111222' 
TABS,ioos:station:wmo:42047:1,2010-01-03T05:00:00Z,27.8966,-93.5973,4.0,6.389968701,114.600154,7.63,'11111222,11111222,11111222' 
TABS,ioos:station:wmo:42047:1,2010-01-03T05:30:00Z,27.8966,-93.5973,4.0,6.666513332,112.0252153,8.06,'11111222,11111222,11111222' 
TABS,ioos:station:wmo:42047:1,2010-01-03T06:00:00Z,27.8966,-93.5973,4.0,6.804851211,110.8323496,8.63,'11111222,11111222,11111222' 
TABS,ioos:station:wmo:42047:1,2010-01-03T06:30:00Z,27.8966,-93.5973,4.0,6.584010936,108.0500591,7.93,'11111222,11111222,11111222' 
TABS,ioos:station:wmo:42047:1,2010-01-03T07:00:00Z,27.8966,-93.5973,4.0,6.948453065,96.0309931,8.77,'11111222,11111222,11111222' 
TABS,ioos:station:wmo:42047:1,2010-01-03T07:30:00Z,27.8966,-93.5973,4.0,5.999099932,98.0494638,8.03,'11111222,11111222,11111222' 
TABS,ioos:station:wmo:42047:1,2010-01-03T08:00:00Z,27.8966,-93.5973,4.0,6.632721915,97.88617463,8.93,'11111222,11111222,11111222' 
TABS,ioos:station:wmo:42047:1,2010-01-03T08:30:00Z,27.8966,-93.5973,4.0,6.98090252,86.79699293,8.59,'11111222,11111222,11111222' 
TABS,ioos:station:wmo:42047:1,2010-01-03T09:00:00Z,27.8966,-93.5973,4.0,7.241615842,86.75392459,9.31,'11111222,11111222,11111222' 
TABS,ioos:station:wmo:42047:1,2010-01-03T09:30:00Z,27.8966,-93.5973,4.0,7.972107626,83.44510999,9.31,'11111222,11111222,11111222' 
TABS,ioos:station:wmo:42047:1,2010-01-03T10:00:00Z,27.8966,-93.5973,4.0,9.383442865,77.75558769,10.62,'11111222,11111222,11111222' 
TABS,ioos:station:wmo:42047:1,2010-01-03T10:30:00Z,27.8966,-93.5973,4.0,9.666566091,85.01444585,11.34,'11111222,11111222,11111222' 
TABS,ioos:station:wmo:42047:1,2010-01-03T11:00:00Z,27.8966,-93.5973,4.0,10.59306377,81.2575495,12.19,'11111222,11111222,11111222' 
TABS,ioos:station:wmo:42047:1,2010-01-03T11:30:00Z,27.8966,-93.5973,4.0,10.59132664,82.89470903,12.29,'11111222,11111222,11111222' 
TABS,ioos:station:wmo:42047:1,2010-01-03T12:00:00Z,27.8966,-93.5973,4.0,9.998849934,82.35572717,12.48,'11111222,11111222,11111222' 
TABS,ioos:station:wmo:42047:1,2010-01-03T12:30:00Z,27.8966,-93.5973,4.0,9.772108268,83.53638085,11.59,'11111222,11111222,11111222' 
TABS,ioos:station:wmo:42047:1,2010-01-03T13:00:00Z,27.8966,-93.5973,4.0,9.717247553,84.98132466,11.26,'11111222,11111222,11111222' 
TABS,ioos:station:wmo:42047:1,2010-01-03T13:30:00Z,27.8966,-93.5973,4.0,9.814316074,85.20685953,11.05,'11111222,11111222,11111222' 
TABS,ioos:station:wmo:42047:1,2010-01-03T14:00:00Z,27.8966,-93.5973,4.0,9.693183172,86.03610131,11.3,'11111222,11111222,11111222' 
TABS,ioos:station:wmo:42047:1,2010-01-03T14:30:00Z,27.8966,-93.5973,4.0,10.31100868,83.76372099,11.65,'11111222,11111222,11111222' 
TABS,ioos:station:wmo:42047:1,2010-01-03T15:00:00Z,27.8966,-93.5973,4.0,9.860720055,78.71246369,11.49,'11111222,11111222,11111222' 
TABS,ioos:station:wmo:42047:1,2010-01-03T15:30:00Z,27.8966,-93.5973,4.0,9.887244308,80.0990435,11.63,'11111222,11111222,11111222' 
TABS,ioos:station:wmo:42047:1,2010-01-03T16:00:00Z,27.8966,-93.5973,4.0,9.82903861,82.28168752,11.11,'11111222,11111222,11111222' 
TABS,ioos:station:wmo:42047:1,2010-01-03T16:30:00Z,27.8966,-93.5973,4.0,10.27394763,77.74905014,11.99,'11111222,11111222,11111222' 
TABS,ioos:station:wmo:42047:1,2010-01-03T17:00:00Z,27.8966,-93.5973,4.0,10.63602369,76.68197625,12.46,'11111222,11111222,11111222' 
TABS,ioos:station:wmo:42047:1,2010-01-03T17:30:00Z,27.8966,-93.5973,4.0,10.37810195,73.48545379,11.95,'11111222,11111222,11111222' 
TABS,ioos:station:wmo:42047:1,2010-01-03T18:00:00Z,27.8966,-93.5973,4.0,10.098995,72.6591329,11.87,'11111222,11111222,11111222' 
TABS,ioos:station:wmo:42047:1,2010-01-03T18:30:00Z,27.8966,-93.5973,4.0,9.366685646,68.58442645,10.65,'11111222,11111222,11111222' 
TABS,ioos:station:wmo:42047:1,2010-01-03T19:00:00Z,27.8966,-93.5973,4.0,9.235393874,59.40828481,10.75,'11111222,11111222,11111222' 
TABS,ioos:station:wmo:42047:1,2010-01-03T19:30:00Z,27.8966,-93.5973,4.0,8.518479911,50.57302361,10.19,'11111222,11111222,11111222' 
TABS,ioos:station:wmo:42047:1,2010-01-03T20:00:00Z,27.8966,-93.5973,4.0,9.199184746,47.20227732,10.82,'11111222,11111222,11111222' 
TABS,ioos:station:wmo:42047:1,2010-01-03T20:30:00Z,27.8966,-93.5973,4.0,9.860714984,47.67126905,11.14,'11111222,11111222,11111222' 
TABS,ioos:station:wmo:42047:1,2010-01-03T21:00:00Z,27.8966,-93.5973,4.0,9.713372226,56.93127768,11.4,'11111222,11111222,11111222' 
TABS,ioos:station:wmo:42047:1,2010-01-03T21:30:00Z,27.8966,-93.5973,4.0,9.409936238,62.80828425,10.59,'11111222,11111222,11111222' 
TABS,ioos:station:wmo:42047:1,2010-01-03T22:00:00Z,27.8966,-93.5973,4.0,8.445383354,39.57073544,10.01,'11111222,11111222,11111222' 
TABS,ioos:station:wmo:42047:1,2010-01-03T22:30:00Z,27.8966,-93.5973,4.0,8.745890464,48.89386671,10.71,'11111222,11111222,11111222' 
TABS,ioos:station:wmo:42047:1,2010-01-03T23:00:00Z,27.8966,-93.5973,4.0,8.6002093,48.4878542,10.39,'11111222,11111222,11111222' 
TABS,ioos:station:wmo:42047:1,2010-01-03T23:30:00Z,27.8966,-93.5973,4.0,9.175979512,47.91499961,11.08,'11111222,11111222,11111222' 
TABS,ioos:station:wmo:42047:1,2010-01-04T00:00:00Z,27.8966,-93.5973,4.0,8.910381586,54.45450942,10.35,'11111222,11111222,11111222' 
TABS,ioos:station:wmo:42047:1,2010-01-04T00:30:00Z,27.8966,-93.5973,4.0,8.955891915,54.81896199,10.82,'11111222,11111222,11111222' 
TABS,ioos:station:wmo:42047:1,2010-01-04T01:00:00Z,27.8966,-93.5973,4.0,9.718281741,46.33383953,11.49,'11111222,11111222,11111222' 
TABS,ioos:station:wmo:42047:1,2010-01-04T01:30:00Z,27.8966,-93.5973,4.0,9.135874342,48.19426631,10.55,'11111222,11111222,11111222' 
TABS,ioos:station:wmo:42047:1,2010-01-04T02:00:00Z,27.8966,-93.5973,4.0,8.90833879,50.96820815,10.96,'11111222,11111222,11111222' 
TABS,ioos:station:wmo:42047:1,2010-01-04T02:30:00Z,27.8966,-93.5973,4.0,8.826924719,48.49011846,10.99,'11111222,11111222,11111222' 
TABS,ioos:station:wmo:42047:1,2010-01-04T03:00:00Z,27.8966,-93.5973,4.0,9.391363053,42.62631739,11.27,'11111222,11111222,11111222' 
TABS,ioos:station:wmo:42047:1,2010-01-04T03:30:00Z,27.8966,-93.5973,4.0,9.114609152,44.95523463,10.42,'11111222,11111222,11111222' 
TABS,ioos:station:wmo:42047:1,2010-01-04T04:00:00Z,27.8966,-93.5973,4.0,8.711567023,44.90667198,10.26,'11111222,11111222,11111222' 
TABS,ioos:station:wmo:42047:1,2010-01-04T04:30:00Z,27.8966,-93.5973,4.0,8.179712709,63.8104992,9.8,'11111222,11111222,11111222' 
TABS,ioos:station:wmo:42047:1,2010-01-04T05:00:00Z,27.8966,-93.5973,4.0,7.496032284,53.29792408,9.13,'11111222,11111222,11111222' 
TABS,ioos:station:wmo:42047:1,2010-01-04T05:30:00Z,27.8966,-93.5973,4.0,6.522116221,43.38440004,8.31,'11111222,11111222,11111222' 
TABS,ioos:station:wmo:42047:1,2010-01-04T06:00:00Z,27.8966,-93.5973,4.0,6.768049941,50.33500949,8.11,'11111222,11111222,11111222' 
TABS,ioos:station:wmo:42047:1,2010-01-04T06:30:00Z,27.8966,-93.5973,4.0,7.042627351,53.89453204,8.63,'11111222,11111222,11111222' 
TABS,ioos:station:wmo:42047:1,2010-01-04T07:00:00Z,27.8966,-93.5973,4.0,7.16118007,52.08959788,8.54,'11111222,11111222,11111222' 
TABS,ioos:station:wmo:42047:1,2010-01-04T07:30:00Z,27.8966,-93.5973,4.0,6.943954205,40.50254321,8.69,'11111222,11111222,11111222' 
TABS,ioos:station:wmo:42047:1,2010-01-04T08:00:00Z,27.8966,-93.5973,4.0,6.457816969,38.83963821,8.66,'11111222,11111222,11111222' 
TABS,ioos:station:wmo:42047:1,2010-01-04T08:30:00Z,27.8966,-93.5973,4.0,6.767939125,35.49801931,8.14,'11111222,11111222,11111222' 
TABS,ioos:station:wmo:42047:1,2010-01-04T09:00:00Z,27.8966,-93.5973,4.0,7.209133096,26.35152036,9.5,'11111222,11111222,11111222' 
TABS,ioos:station:wmo:42047:1,2010-01-04T09:30:00Z,27.8966,-93.5973,4.0,6.974991039,17.00584845,8.91,'11111222,11111222,11111222' 
TABS,ioos:station:wmo:42047:1,2010-01-04T10:00:00Z,27.8966,-93.5973,4.0,6.748303491,18.48839313,8.77,'11111222,11111222,11111222' 
TABS,ioos:station:wmo:42047:1,2010-01-04T10:30:00Z,27.8966,-93.5973,4.0,7.125054386,6.446529845,8.79,'11111222,11111222,11111222' 
TABS,ioos:station:wmo:42047:1,2010-01-04T11:00:00Z,27.8966,-93.5973,4.0,6.941015776,11.97344702,9.03,'11111222,11111222,11111222' 
TABS,ioos:station:wmo:42047:1,2010-01-04T11:30:00Z,27.8966,-93.5973,4.0,7.80566461,9.43795498,9.54,'11111222,11111222,11111222' 
TABS,ioos:station:wmo:42047:1,2010-01-04T12:00:00Z,27.8966,-93.5973,4.0,7.871581798,12.99437595,9.88,'11111222,11111222,11111222' 
TABS,ioos:station:wmo:42047:1,2010-01-04T12:30:00Z,27.8966,-93.5973,4.0,8.041050926,9.954086753,9.63,'11111222,11111222,11111222' 
TABS,ioos:station:wmo:42047:1,2010-01-04T13:00:00Z,27.8966,-93.5973,4.0,7.848898012,18.11151615,9.46,'11111222,11111222,11111222' 
TABS,ioos:station:wmo:42047:1,2010-01-04T13:30:00Z,27.8966,-93.5973,4.0,7.862448728,11.66698481,10.02,'11111222,11111222,11111222' 
TABS,ioos:station:wmo:42047:1,2010-01-04T14:00:00Z,27.8966,-93.5973,4.0,7.747735153,12.29595356,9.57,'11111222,11111222,11111222' 
TABS,ioos:station:wmo:42047:1,2010-01-04T14:30:00Z,27.8966,-93.5973,4.0,6.931954991,13.51478056,9.32,'11111222,11111222,11111222' 
TABS,ioos:station:wmo:42047:1,2010-01-04T15:00:00Z,27.8966,-93.5973,4.0,7.380277773,5.988463843,8.88,'11111222,11111222,11111222' 
TABS,ioos:station:wmo:42047:1,2010-01-04T15:30:00Z,27.8966,-93.5973,4.0,6.483347901,7.354979028,8.82,'11111222,11111222,11111222' 
TABS,ioos:station:wmo:42047:1,2010-01-04T16:00:00Z,27.8966,-93.5973,4.0,7.264722982,7.0367475,8.97,'11111222,11111222,11111222' 
TABS,ioos:station:wmo:42047:1,2010-01-04T16:30:00Z,27.8966,-93.5973,4.0,7.290987587,0.942842569,8.78,'11111222,11111222,11111222' 
TABS,ioos:station:wmo:42047:1,2010-01-04T17:00:00Z,27.8966,-93.5973,4.0,7.780231359,359.5579296,10.1,'11111222,11144222,11111222' 
TABS,ioos:station:wmo:42047:1,2010-01-04T17:30:00Z,27.8966,-93.5973,4.0,7.93227584,358.6272687,9.61,'11111222,11111222,11111222' 
TABS,ioos:station:wmo:42047:1,2010-01-04T18:00:00Z,27.8966,-93.5973,4.0,8.03637356,357.7177335,10.32,'11111222,11111222,11111222' 
TABS,ioos:station:wmo:42047:1,2010-01-04T18:30:00Z,27.8966,-93.5973,4.0,8.650693614,357.150621,10.29,'11111222,11111222,11111222' 